Weather History for Hatteras, NC

Change the Weather History Date:

Wednesday, December 26, 2012

  Actual Average Record
Temperature  
Mean Temperature 59 °F 47 °F  
Max Temperature 66 °F 54 °F 74 °F (1964)
Min Temperature 52 °F 40 °F 15 °F (1983)
Degree Days  
Heating Degree Days 6 18  
Month to date heating degree days 251 397  
Since 1 July heating degree days 688 715  
Cooling Degree Days 0 0  
Month to date cooling degree days 0 0  
Year to date cooling degree days 2090 1711  
Growing Degree Days 8 (Base 50)    
Moisture  
Dew Point 58 °F    
Average Humidity 86    
Maximum Humidity 100    
Minimum Humidity 72    
Precipitation  
Precipitation 1.79 in 0.14 in 1.79 in (2012)
Month to date precipitation 5.14 3.57  
Year to date precipitation 56.39 57.34  
Snow  
Snow 0.00 in - - ()
Month to date snowfall 0.0  
Since 1 July snowfall 0.0  
Snow Depth 0.00 in    
Sea Level Pressure  
Sea Level Pressure 29.71 in    
Wind  
Wind Speed 17 mph (South)    
Max Wind Speed 35 mph    
Max Gust Speed 49 mph    
Visibility 5 miles    
Events Fog , Rain    
T = Trace of Precipitation, MM = Missing Value Source: NWS Daily Summary

Daily Weather History Graph

Daily Weather History Graph

Search for Another Location

Airport:

Trip Planner

Search our weather history database for the weather conditions in past years. The results will help you decide how hot, cold, wet, or windy it might be!

Date:

Astronomy

Dec. 26, 2012 Rise Set
Actual Time 7:09 AM EST 4:57 PM EST
Civil Twilight 6:41 AM EST 5:25 PM EST
Nautical Twilight 6:09 AM EST 5:57 PM EST
Astronomical Twilight 5:38 AM EST 6:28 PM EST
Moon 3:47 PM EST (12/26) 5:32 AM EST (12/26)
Length of Visible Light 10h 44m
Length of Day
9h 47m
Waxing Gibbous, 97% of the Moon is Illuminated
Dec 26
Waxing Gibbous
Dec 28
Full
Jan 4
Last Quarter
Jan 11
New
Jan 18
First Quarter

Hourly Weather History & Observations

Time (EST) Temp. Dew Point Humidity Pressure Visibility Wind Dir Wind Speed Gust Speed Precip Events Conditions
12:51 AM 52.0 °F 48.0 °F 86% 30.07 in 10.0 mi NE 11.5 mph 18.4 mph N/A   Partly Cloudy
1:51 AM 53.1 °F 48.9 °F 86% 30.08 in 10.0 mi NE 9.2 mph - N/A   Mostly Cloudy
2:51 AM 53.1 °F 50.0 °F 89% 30.04 in 10.0 mi ENE 9.2 mph - 0.01 in   Overcast
3:51 AM 55.0 °F 51.1 °F 86% 30.02 in 10.0 mi ENE 10.4 mph 19.6 mph N/A   Overcast
4:51 AM 55.9 °F 52.0 °F 87% 29.99 in 10.0 mi ENE 10.4 mph 21.9 mph N/A   Overcast
5:51 AM 57.9 °F 54.0 °F 87% 29.95 in 10.0 mi East 16.1 mph 25.3 mph N/A   Mostly Cloudy
6:30 AM 59.0 °F 55.4 °F 88% 29.95 in 9.0 mi ENE 8.1 mph 20.7 mph 0.00 in Rain Light Rain
6:51 AM 59.0 °F 57.0 °F 93% 29.94 in 10.0 mi ENE 15.0 mph 21.9 mph 0.00 in   Overcast
7:25 AM 60.8 °F 59.0 °F 94% 29.91 in 9.0 mi East 12.7 mph 20.7 mph 0.00 in   Overcast
7:51 AM 61.0 °F 60.1 °F 97% 29.90 in 10.0 mi East 11.5 mph - 0.00 in   Overcast
8:04 AM 60.8 °F 59.0 °F 94% 29.87 in 8.0 mi East 12.7 mph - 0.00 in Rain Light Rain
8:51 AM 60.1 °F 59.0 °F 96% 29.86 in 2.0 mi ESE 18.4 mph - 0.08 in Rain Rain
9:26 AM 60.8 °F 59.0 °F 94% 29.84 in 1.2 mi SE 18.4 mph 26.5 mph 0.15 in Rain Heavy Rain
9:45 AM 60.8 °F 60.8 °F 100% 29.84 in 0.8 mi SE 12.7 mph - 0.30 in Rain Heavy Rain
9:51 AM 61.0 °F 61.0 °F 100% 29.83 in 0.5 mi SE 18.4 mph - 0.46 in Fog , Rain Heavy Rain
10:04 AM 62.6 °F 62.6 °F 100% 29.85 in 1.0 mi South 12.7 mph 19.6 mph 0.31 in Rain Rain
10:15 AM 60.8 °F 60.8 °F 100% 29.83 in 1.8 mi South 20.7 mph 25.3 mph 0.36 in Rain Rain
10:47 AM 60.8 °F 60.8 °F 100% 29.82 in 1.0 mi South 17.3 mph - 0.52 in Rain Heavy Rain
10:51 AM 61.0 °F 60.1 °F 97% 29.81 in 1.0 mi South 17.3 mph - 0.54 in Rain Rain
11:18 AM 62.6 °F 62.6 °F 100% 29.78 in 0.8 mi South 16.1 mph 26.5 mph 0.24 in Rain Heavy Rain
11:27 AM 62.6 °F 62.6 °F 100% 29.78 in 1.0 mi SW 13.8 mph 18.4 mph 0.34 in Rain Light Rain
11:37 AM 62.6 °F 60.8 °F 94% 29.76 in 1.8 mi South 19.6 mph 25.3 mph 0.35 in Rain Light Rain
11:40 AM 62.6 °F 60.8 °F 94% 29.76 in 3.0 mi South 19.6 mph 27.6 mph 0.35 in Rain Light Rain
11:51 AM 63.0 °F 61.0 °F 93% 29.74 in 4.0 mi South 21.9 mph - 0.36 in Rain Light Rain
12:51 PM 64.9 °F 60.1 °F 84% 29.65 in 6.0 mi South 24.2 mph 32.2 mph 0.02 in   Haze
1:51 PM 64.9 °F 59.0 °F 81% 29.62 in 5.0 mi South 19.6 mph 29.9 mph 0.00 in Rain Light Rain
2:39 PM 64.4 °F 60.8 °F 88% 29.59 in 1.8 mi South 26.5 mph 33.4 mph 0.02 in Rain Rain
2:48 PM 64.4 °F 62.6 °F 94% 29.58 in 1.2 mi South 21.9 mph 33.4 mph 0.07 in Rain Rain
2:51 PM 64.9 °F 62.1 °F 90% 29.58 in 1.8 mi South 21.9 mph 29.9 mph 0.07 in Rain Rain
3:12 PM 64.4 °F 62.6 °F 94% 29.57 in 2.5 mi South 24.2 mph 38.0 mph 0.09 in Rain Heavy Rain
3:40 PM 64.4 °F 62.6 °F 94% 29.59 in 1.8 mi SSW 28.8 mph 49.5 mph 0.16 in Rain Heavy Rain
3:51 PM 64.0 °F 61.0 °F 90% 29.57 in 2.0 mi SSW 28.8 mph 49.5 mph 0.22 in Rain Rain
4:23 PM 62.6 °F 57.2 °F 82% 29.51 in 3.0 mi South 17.3 mph 29.9 mph 0.03 in Rain Light Rain
4:51 PM 64.0 °F 62.1 °F 93% 29.51 in 2.5 mi SSW 16.1 mph - 0.03 in Rain Light Rain
4:58 PM 64.4 °F 60.8 °F 88% 29.50 in 3.0 mi South 23.0 mph 32.2 mph 0.00 in   Mostly Cloudy
5:51 PM 64.9 °F 60.1 °F 84% 29.48 in 5.0 mi SSW 25.3 mph 34.5 mph 0.00 in   Haze
6:10 PM 64.4 °F 60.8 °F 88% 29.47 in 5.0 mi SSW 23.0 mph 33.4 mph N/A   Haze
6:43 PM 64.4 °F 60.8 °F 88% 29.47 in 5.0 mi SSW 18.4 mph 27.6 mph N/A   Overcast
6:51 PM 64.9 °F 61.0 °F 87% 29.46 in 4.0 mi SSW 17.3 mph 26.5 mph N/A   Overcast
7:04 PM 64.4 °F 60.8 °F 88% 29.45 in 4.0 mi SSW 17.3 mph 28.8 mph N/A   Overcast
7:44 PM 62.6 °F 55.4 °F 77% 29.45 in 7.0 mi WSW 26.5 mph 36.8 mph N/A   Partly Cloudy
7:51 PM 62.1 °F 55.0 °F 78% 29.46 in 7.0 mi WSW 25.3 mph 38.0 mph N/A   Partly Cloudy
8:51 PM 61.0 °F 54.0 °F 78% 29.47 in 7.0 mi WSW 25.3 mph 38.0 mph N/A   Clear
9:51 PM 60.1 °F 52.0 °F 75% 29.50 in 7.0 mi WSW 17.3 mph 27.6 mph N/A   Clear
10:32 PM 59.0 °F 51.8 °F 77% 29.51 in 6.0 mi West 18.4 mph 28.8 mph N/A   Haze
10:51 PM 57.9 °F 50.0 °F 75% 29.52 in 7.0 mi West 11.5 mph 24.2 mph N/A   Mostly Cloudy
11:51 PM 54.0 °F 46.0 °F 75% 29.55 in 10.0 mi WNW 16.1 mph 29.9 mph N/A   Overcast